• In Hungary
  • List of Countries
  • For 7 days
  • Water Temperature
  • Satellite Maps
  • Weather Map
  • News
  • Weather Widgets
  • user-avatar
    Login

    Hourly Weather A'ali

    Today, 22 November, Wednesday

    Time Temperature Precipitation Wind Pressure Humidity
    00:00 +28°C° 0 mm 5 mps 757 mmHg 45%
    01:00 +28°C° 0 mm 5 mps 757 mmHg 45%
    02:00 +28°C° 0 mm 5 mps 757 mmHg 45%
    03:00 +28°C° 0 mm 6 mps 757 mmHg 46%
    04:00 +27°C° 0 mm 7 mps 757 mmHg 45%
    05:00 +27°C° 0 mm 7 mps 757 mmHg 44%
    06:00 +27°C° 0 mm 7 mps 757 mmHg 43%
    07:00 +28°C° 0 mm 7 mps 758 mmHg 40%
    08:00 +28°C° 0 mm 7 mps 758 mmHg 37%
    09:00 +29°C° 0 mm 7 mps 758 mmHg 34%
    10:00 +30°C° 0 mm 7 mps 758 mmHg 31%
    11:00 +32°C° 0 mm 6 mps 757 mmHg 28%
    12:00 +33°C° 0 mm 6 mps 757 mmHg 25%
    13:00 +33°C° 0 mm 5 mps 757 mmHg 24%
    14:00 +33°C° 0 mm 5 mps 757 mmHg 24%
    15:00 +34°C° 0 mm 4 mps 756 mmHg 23%
    16:00 +32°C° 0 mm 4 mps 756 mmHg 26%
    17:00 +30°C° 0 mm 3 mps 756 mmHg 29%
    18:00 +29°C° 0 mm 2 mps 757 mmHg 31%
    19:00 +29°C° 0 mm 3 mps 757 mmHg 33%
    20:00 +29°C° 0 mm 3 mps 757 mmHg 34%
    21:00 +30°C° 0 mm 4 mps 757 mmHg 35%
    22:00 +29°C° 0 mm 4 mps 757 mmHg 36%
    23:00 +29°C° 0 mm 5 mps 757 mmHg 38%

    Tomorrow, 23 November, Thursday

    Time Temperature Precipitation Wind Pressure Humidity
    00:00 +29°C° 0 mm 5 mps 757 mmHg 39%
    01:00 +28°C° 0 mm 5 mps 757 mmHg 41%
    02:00 +28°C° 0 mm 5 mps 757 mmHg 42%
    03:00 +27°C° 0 mm 4 mps 757 mmHg 44%
    04:00 +27°C° 0 mm 4 mps 757 mmHg 46%
    05:00 +26°C° 0 mm 3 mps 758 mmHg 48%
    06:00 +26°C° 0 mm 2 mps 758 mmHg 51%
    07:00 +26°C° 0.1 mm 4 mps 758 mmHg 52%
    08:00 +27°C° 0.1 mm 5 mps 759 mmHg 53%
    09:00 +28°C° 0.1 mm 7 mps 759 mmHg 54%
    10:00 +28°C° 0.1 mm 6 mps 759 mmHg 52%
    11:00 +28°C° 0.1 mm 6 mps 759 mmHg 51%
    12:00 +28°C° 0.1 mm 6 mps 759 mmHg 49%
    13:00 +28°C° 0.4 mm 5 mps 759 mmHg 51%
    14:00 +27°C° 0.4 mm 4 mps 759 mmHg 53%
    15:00 +26°C° 0.4 mm 3 mps 758 mmHg 55%
    16:00 +26°C° 0.5 mm 3 mps 759 mmHg 58%
    17:00 +25°C° 0.5 mm 3 mps 759 mmHg 60%
    18:00 +25°C° 0.5 mm 3 mps 760 mmHg 62%
    19:00 +24°C° 0.5 mm 3 mps 760 mmHg 63%
    20:00 +23°C° 0.5 mm 4 mps 760 mmHg 64%
    21:00 +23°C° 0.5 mm 4 mps 760 mmHg 64%
    22:00 +25°C° 0 mm 4 mps 760 mmHg 61%
    23:00 +25°C° 0 mm 4 mps 760 mmHg 59%

    Day after tomorrow, 24 November, Friday

    Time Temperature Precipitation Wind Pressure Humidity
    00:00 +26°C° 0 mm 5 mps 760 mmHg 56%
    01:00 +26°C° 0 mm 5 mps 760 mmHg 55%
    02:00 +26°C° 0 mm 5 mps 759 mmHg 54%
    03:00 +26°C° 0 mm 5 mps 759 mmHg 54%
    04:00 +26°C° 0.3 mm 5 mps 760 mmHg 55%
    05:00 +26°C° 0.3 mm 5 mps 760 mmHg 56%
    06:00 +26°C° 0.3 mm 6 mps 760 mmHg 57%
    07:00 +26°C° 0.3 mm 6 mps 761 mmHg 56%
    08:00 +26°C° 0.3 mm 6 mps 762 mmHg 55%
    09:00 +26°C° 0.3 mm 6 mps 762 mmHg 54%
    10:00 +27°C° 0 mm 6 mps 762 mmHg 52%
    11:00 +27°C° 0 mm 7 mps 762 mmHg 51%
    12:00 +27°C° 0 mm 7 mps 762 mmHg 50%
    13:00 +27°C° 0 mm 8 mps 762 mmHg 49%
    14:00 +27°C° 0 mm 8 mps 762 mmHg 49%
    15:00 +26°C° 0 mm 9 mps 762 mmHg 49%
    16:00 +26°C° 0 mm 8 mps 762 mmHg 49%
    17:00 +26°C° 0 mm 8 mps 762 mmHg 49%
    18:00 +24°C° 0 mm 7 mps 763 mmHg 49%
    19:00 +24°C° 0 mm 8 mps 763 mmHg 49%
    20:00 +24°C° 0 mm 8 mps 763 mmHg 49%
    21:00 +24°C° 0 mm 8 mps 764 mmHg 50%
    22:00 +24°C° 0 mm 8 mps 764 mmHg 51%
    23:00 +24°C° 0 mm 8 mps 764 mmHg 52%

    25 November, Saturday

    Time Temperature Precipitation Wind Pressure Humidity
    00:00 +23°C° 0 mm 8 mps 764 mmHg 53%
    01:00 +23°C° 0 mm 8 mps 764 mmHg 53%
    02:00 +23°C° 0 mm 8 mps 764 mmHg 52%
    03:00 +23°C° 0 mm 8 mps 763 mmHg 52%
    04:00 +23°C° 0 mm 8 mps 764 mmHg 52%
    05:00 +23°C° 0 mm 8 mps 764 mmHg 51%
    06:00 +23°C° 0 mm 8 mps 764 mmHg 51%
    07:00 +24°C° 0 mm 8 mps 765 mmHg 48%
    08:00 +24°C° 0 mm 8 mps 765 mmHg 46%
    09:00 +26°C° 0 mm 7 mps 766 mmHg 44%
    10:00 +26°C° 0 mm 8 mps 765 mmHg 42%
    11:00 +26°C° 0 mm 8 mps 765 mmHg 41%
    12:00 +27°C° 0 mm 8 mps 764 mmHg 39%
    13:00 +27°C° 0 mm 8 mps 764 mmHg 40%
    14:00 +26°C° 0 mm 8 mps 764 mmHg 40%
    15:00 +26°C° 0 mm 8 mps 763 mmHg 41%
    16:00 +26°C° 0 mm 8 mps 764 mmHg 43%
    17:00 +24°C° 0 mm 8 mps 764 mmHg 44%
    18:00 +24°C° 0 mm 8 mps 764 mmHg 46%
    19:00 +23°C° 0 mm 8 mps 764 mmHg 47%
    20:00 +23°C° 0 mm 8 mps 765 mmHg 47%
    21:00 +23°C° 0 mm 7 mps 765 mmHg 48%
    22:00 +23°C° 0 mm 7 mps 765 mmHg 48%
    23:00 +23°C° 0 mm 7 mps 765 mmHg 48%

    26 November, Sunday

    Time Temperature Precipitation Wind Pressure Humidity
    00:00 +23°C° 0 mm 7 mps 764 mmHg 49%
    01:00 +22°C° 0 mm 7 mps 764 mmHg 49%
    02:00 +22°C° 0 mm 7 mps 764 mmHg 49%
    03:00 +22°C° 0 mm 8 mps 764 mmHg 49%
    04:00 +22°C° 0 mm 7 mps 764 mmHg 49%
    05:00 +22°C° 0 mm 7 mps 764 mmHg 50%
    06:00 +22°C° 0 mm 7 mps 764 mmHg 50%
    07:00 +23°C° 0 mm 7 mps 765 mmHg 48%
    08:00 +24°C° 0 mm 6 mps 765 mmHg 46%
    09:00 +24°C° 0 mm 6 mps 765 mmHg 44%
    10:00 +26°C° 0 mm 6 mps 765 mmHg 43%
    11:00 +27°C° 0 mm 6 mps 764 mmHg 41%
    12:00 +27°C° 0 mm 6 mps 764 mmHg 39%
    13:00 +27°C° 0 mm 6 mps 763 mmHg 40%
    14:00 +27°C° 0 mm 6 mps 763 mmHg 40%
    15:00 +27°C° 0 mm 6 mps 763 mmHg 40%
    16:00 +27°C° 0 mm 6 mps 763 mmHg 43%
    17:00 +26°C° 0 mm 6 mps 763 mmHg 46%
    18:00 +26°C° 0 mm 5 mps 763 mmHg 49%
    19:00 +26°C° 0 mm 5 mps 763 mmHg 49%
    20:00 +25°C° 0 mm 4 mps 763 mmHg 49%
    21:00 +25°C° 0 mm 4 mps 763 mmHg 49%
    22:00 +25°C° 0 mm 4 mps 763 mmHg 50%
    23:00 +25°C° 0 mm 3 mps 763 mmHg 50%

    27 November, Monday

    Time Temperature Precipitation Wind Pressure Humidity
    00:00 +25°C° 0 mm 3 mps 762 mmHg 51%
    01:00 +25°C° 0 mm 3 mps 762 mmHg 52%
    02:00 +25°C° 0 mm 3 mps 762 mmHg 53%
    03:00 +24°C° 0 mm 3 mps 762 mmHg 53%
    04:00 +24°C° 0 mm 3 mps 762 mmHg 54%
    05:00 +24°C° 0 mm 3 mps 762 mmHg 55%
    06:00 +24°C° 0 mm 2 mps 763 mmHg 56%
    07:00 +25°C° 0 mm 2 mps 763 mmHg 53%
    08:00 +25°C° 0 mm 2 mps 763 mmHg 50%
    09:00 +26°C° 0 mm 1 mps 763 mmHg 47%
    10:00 +27°C° 0 mm 2 mps 763 mmHg 45%
    11:00 +27°C° 0 mm 2 mps 762 mmHg 43%
    12:00 +28°C° 0 mm 3 mps 762 mmHg 40%
    13:00 +28°C° 0 mm 3 mps 761 mmHg 40%
    14:00 +28°C° 0 mm 3 mps 761 mmHg 40%
    15:00 +29°C° 0 mm 4 mps 761 mmHg 40%
    16:00 +28°C° 0 mm 4 mps 761 mmHg 44%
    17:00 +28°C° 0 mm 4 mps 761 mmHg 47%
    18:00 +27°C° 0 mm 4 mps 761 mmHg 50%
    19:00 +27°C° 0 mm 4 mps 761 mmHg 52%
    20:00 +27°C° 0 mm 4 mps 761 mmHg 53%
    21:00 +27°C° 0 mm 4 mps 761 mmHg 55%
    22:00 +27°C° 0 mm 4 mps 761 mmHg 56%
    23:00 +27°C° 0 mm 4 mps 761 mmHg 57%
    Show more